Wetterdaten: Mittwoch, 10.09.2014
Datum Zeit Temp. A. Feuchte A. Luftdruck Regen Wind Richtung Richtung Sonnenschein ET UV Solar Taupunkt Windchill Windben Empfang
10.09.2014 00:00 15,4 C 88 % 1013,6 hPa 0,0 l/m 0,0 km/h (0 Bft) S 178 0 min 0,000 mm 0,0 UV-I 0 W/m 13,4 C 15,4 C 0,0 km/h (0 Bft) 0,00 %
10.09.2014 00:15 15,3 C 87 % 1013,8 hPa 0,0 l/m 0,0 km/h (0 Bft) SW 221 0 min 0,000 mm 0,0 UV-I 0 W/m 13,1 C 15,3 C 0,0 km/h (0 Bft) 0,00 %
10.09.2014 00:30 15,2 C 87 % 1013,6 hPa 0,0 l/m 0,0 km/h (0 Bft) SW 230 0 min 0,000 mm 0,0 UV-I 0 W/m 13,0 C 15,2 C 0,0 km/h (0 Bft) 0,00 %
10.09.2014 00:45 15,0 C 88 % 1013,6 hPa 0,0 l/m 0,0 km/h (0 Bft) S-SW 197 0 min 0,000 mm 0,0 UV-I 0 W/m 13,0 C 15,0 C 0,0 km/h (0 Bft) 0,00 %
10.09.2014 01:00 14,9 C 87 % 1013,5 hPa 0,0 l/m 0,0 km/h (0 Bft) S-SW 196 0 min 0,000 mm 0,0 UV-I 0 W/m 12,8 C 14,9 C 0,0 km/h (0 Bft) 0,00 %
10.09.2014 01:15 15,0 C 87 % 1013,5 hPa 0,0 l/m 0,0 km/h (0 Bft) S 175 0 min 0,000 mm 0,0 UV-I 0 W/m 12,9 C 15,0 C 0,0 km/h (0 Bft) 0,00 %
10.09.2014 01:30 15,0 C 87 % 1013,5 hPa 0,0 l/m 0,0 km/h (0 Bft) SW 228 0 min 0,000 mm 0,0 UV-I 0 W/m 12,9 C 15,0 C 0,0 km/h (0 Bft) 0,00 %
10.09.2014 01:45 14,9 C 89 % 1013,7 hPa 0,0 l/m 0,0 km/h (0 Bft) S 187 0 min 0,000 mm 0,0 UV-I 0 W/m 13,1 C 14,9 C 0,0 km/h (0 Bft) 0,00 %
10.09.2014 02:00 14,7 C 90 % 1013,7 hPa 0,0 l/m 0,0 km/h (0 Bft) S 189 0 min 0,000 mm 0,0 UV-I 0 W/m 13,1 C 14,7 C 0,0 km/h (0 Bft) 0,00 %
10.09.2014 02:15 14,4 C 91 % 1013,8 hPa 0,0 l/m 0,0 km/h (0 Bft) S 174 0 min 0,000 mm 0,0 UV-I 0 W/m 12,9 C 14,4 C 0,0 km/h (0 Bft) 0,00 %
10.09.2014 02:30 14,3 C 91 % 1013,8 hPa 0,0 l/m 0,0 km/h (0 Bft) S 176 0 min 0,000 mm 0,0 UV-I 0 W/m 12,8 C 14,3 C 0,0 km/h (0 Bft) 0,00 %
10.09.2014 02:45 14,2 C 92 % 1013,6 hPa 0,0 l/m 0,0 km/h (0 Bft) S-SW 198 0 min 0,000 mm 0,0 UV-I 0 W/m 12,9 C 14,2 C 0,0 km/h (0 Bft) 0,00 %
10.09.2014 03:00 14,1 C 92 % 1013,6 hPa 0,0 l/m 0,0 km/h (0 Bft) S-SW 197 0 min 0,000 mm 0,0 UV-I 0 W/m 12,8 C 14,1 C 0,0 km/h (0 Bft) 0,00 %
10.09.2014 03:15 14,0 C 92 % 1013,6 hPa 0,0 l/m 0,0 km/h (0 Bft) SW 215 0 min 0,000 mm 0,0 UV-I 0 W/m 12,7 C 14,0 C 0,0 km/h (0 Bft) 0,00 %
10.09.2014 03:30 13,9 C 93 % 1013,5 hPa 0,0 l/m 0,0 km/h (0 Bft) SW 215 0 min 0,000 mm 0,0 UV-I 0 W/m 12,8 C 13,9 C 0,0 km/h (0 Bft) 0,00 %
10.09.2014 03:45 13,6 C 94 % 1013,7 hPa 0,0 l/m 0,0 km/h (0 Bft) SW 215 0 min 0,000 mm 0,0 UV-I 0 W/m 12,7 C 13,6 C 0,0 km/h (0 Bft) 0,00 %
10.09.2014 04:00 13,3 C 94 % 1013,6 hPa 0,0 l/m 0,0 km/h (0 Bft) SW 215 0 min 0,000 mm 0,0 UV-I 0 W/m 12,4 C 13,3 C 0,0 km/h (0 Bft) 0,00 %
10.09.2014 04:15 13,2 C 95 % 1013,7 hPa 0,0 l/m 0,0 km/h (0 Bft) SW 215 0 min 0,000 mm 0,0 UV-I 0 W/m 12,4 C 13,2 C 0,0 km/h (0 Bft) 0,00 %
10.09.2014 04:30 12,9 C 96 % 1013,9 hPa 0,0 l/m 0,0 km/h (0 Bft) S-SO 168 0 min 0,000 mm 0,0 UV-I 0 W/m 12,3 C 12,9 C 0,0 km/h (0 Bft) 0,00 %
10.09.2014 04:45 12,9 C 95 % 1013,9 hPa 0,0 l/m 0,0 km/h (0 Bft) S-SO 168 0 min 0,000 mm 0,0 UV-I 0 W/m 12,1 C 12,9 C 0,0 km/h (0 Bft) 0,00 %
10.09.2014 05:00 13,2 C 96 % 1013,7 hPa 0,0 l/m 0,0 km/h (0 Bft) SW 217 0 min 0,000 mm 0,0 UV-I 0 W/m 12,6 C 13,2 C 0,0 km/h (0 Bft) 0,00 %
10.09.2014 05:15 13,4 C 96 % 1013,6 hPa 0,0 l/m 0,0 km/h (0 Bft) S-SW 212 0 min 0,000 mm 0,0 UV-I 0 W/m 12,8 C 13,4 C 0,0 km/h (0 Bft) 0,00 %
10.09.2014 05:30 13,5 C 96 % 1013,5 hPa 0,0 l/m 0,0 km/h (0 Bft) S-SW 212 0 min 0,000 mm 0,0 UV-I 0 W/m 12,9 C 13,5 C 0,0 km/h (0 Bft) 0,00 %
10.09.2014 05:45 13,5 C 96 % 1013,6 hPa 0,0 l/m 0,0 km/h (0 Bft) W-SW 246 0 min 0,000 mm 0,0 UV-I 0 W/m 12,9 C 13,5 C 0,0 km/h (0 Bft) 0,00 %
10.09.2014 06:00 13,5 C 96 % 1013,5 hPa 0,0 l/m 0,0 km/h (0 Bft) SO 145 0 min 0,000 mm 0,0 UV-I 0 W/m 12,9 C 13,5 C 0,0 km/h (0 Bft) 0,00 %
10.09.2014 06:15 13,6 C 97 % 1013,5 hPa 0,0 l/m 0,0 km/h (0 Bft) O-NO 59 0 min 0,000 mm 0,0 UV-I 0 W/m 13,1 C 13,6 C 0,0 km/h (0 Bft) 0,00 %
10.09.2014 06:30 13,9 C 97 % 1013,4 hPa 0,0 l/m 0,0 km/h (0 Bft) SW 220 0 min 0,000 mm 0,0 UV-I 0 W/m 13,4 C 13,9 C 0,0 km/h (0 Bft) 0,00 %
10.09.2014 06:45 13,9 C 96 % 1013,4 hPa 0,0 l/m 0,0 km/h (0 Bft) SW 220 0 min 0,000 mm 1,0 UV-I 2 W/m 13,3 C 13,9 C 0,0 km/h (0 Bft) 0,00 %
10.09.2014 07:00 14,0 C 95 % 1013,5 hPa 0,0 l/m 0,0 km/h (0 Bft) SW 220 0 min 0,000 mm 1,0 UV-I 25 W/m 13,2 C 14,0 C 0,0 km/h (0 Bft) 0,00 %
10.09.2014 07:15 14,4 C 94 % 1013,5 hPa 0,0 l/m 0,0 km/h (0 Bft) SW 220 0 min 0,000 mm 1,0 UV-I 54 W/m 13,4 C 14,4 C 0,0 km/h (0 Bft) 0,00 %
10.09.2014 07:30 15,0 C 91 % 1013,3 hPa 0,0 l/m 0,0 km/h (0 Bft) N-NW 338 0 min 0,000 mm 1,0 UV-I 69 W/m 13,5 C 15,0 C 0,0 km/h (0 Bft) 0,00 %
10.09.2014 07:45 15,1 C 89 % 1013,2 hPa 0,0 l/m 0,0 km/h (0 Bft) O 80 0 min 0,000 mm 1,0 UV-I 89 W/m 13,3 C 15,1 C 0,0 km/h (0 Bft) 0,00 %
10.09.2014 08:00 15,3 C 87 % 1013,3 hPa 0,0 l/m 0,0 km/h (0 Bft) O 87 0 min 0,000 mm 2,0 UV-I 83 W/m 13,1 C 15,3 C 0,0 km/h (0 Bft) 0,00 %
10.09.2014 08:15 15,4 C 86 % 1013,2 hPa 0,0 l/m 0,0 km/h (0 Bft) NO 38 0 min 0,000 mm 2,0 UV-I 80 W/m 13,1 C 15,4 C 0,0 km/h (0 Bft) 0,00 %
10.09.2014 08:30 15,6 C 86 % 1013,0 hPa 0,0 l/m 0,0 km/h (0 Bft) O-SO 118 0 min 0,000 mm 3,0 UV-I 111 W/m 13,3 C 15,6 C 0,0 km/h (0 Bft) 0,00 %
10.09.2014 08:45 16,2 C 82 % 1012,9 hPa 0,0 l/m 0,0 km/h (0 Bft) O-NO 59 0 min 0,000 mm 3,0 UV-I 181 W/m 13,1 C 16,2 C 0,0 km/h (0 Bft) 0,00 %
10.09.2014 09:00 17,3 C 77 % 1012,6 hPa 0,0 l/m 0,0 km/h (0 Bft) N-NO 29 15 min 0,000 mm 3,0 UV-I 220 W/m 13,2 C 17,3 C 0,0 km/h (0 Bft) 0,00 %
10.09.2014 09:15 17,7 C 73 % 1012,3 hPa 0,0 l/m 0,0 km/h (0 Bft) NO 55 15 min 0,000 mm 3,0 UV-I 253 W/m 12,8 C 17,7 C 4,0 km/h (1 Bft) 0,00 %
10.09.2014 09:30 17,5 C 76 % 1012,4 hPa 0,0 l/m 0,0 km/h (0 Bft) O-NO 71 15 min 0,000 mm 3,0 UV-I 272 W/m 13,2 C 17,5 C 4,0 km/h (1 Bft) 0,00 %
10.09.2014 09:45 18,2 C 72 % 1012,2 hPa 0,0 l/m 0,0 km/h (0 Bft) O-NO 78 15 min 0,000 mm 4,0 UV-I 313 W/m 13,1 C 18,2 C 4,0 km/h (1 Bft) 0,00 %
10.09.2014 10:00 18,3 C 72 % 1012,2 hPa 0,0 l/m 0,4 km/h (0 Bft) O 97 0 min 0,000 mm 3,0 UV-I 270 W/m 13,2 C 18,3 C 4,0 km/h (1 Bft) 0,00 %
10.09.2014 10:15 17,9 C 70 % 1012,5 hPa 0,0 l/m 0,4 km/h (0 Bft) O-NO 62 15 min 0,000 mm 3,0 UV-I 329 W/m 12,3 C 17,9 C 0,0 km/h (0 Bft) 0,00 %
10.09.2014 10:30 19,0 C 66 % 1012,3 hPa 0,0 l/m 1,4 km/h (1 Bft) N-NW 341 15 min 0,000 mm 5,0 UV-I 390 W/m 12,5 C 19,0 C 0,0 km/h (0 Bft) 0,00 %
10.09.2014 10:45 18,7 C 68 % 1012,7 hPa 0,0 l/m 2,2 km/h (1 Bft) O-SO 112 0 min 0,000 mm 3,0 UV-I 317 W/m 12,7 C 18,7 C 4,0 km/h (1 Bft) 0,00 %
10.09.2014 11:00 18,7 C 70 % 1012,6 hPa 0,0 l/m 0,0 km/h (0 Bft) O 79 0 min 0,000 mm 4,0 UV-I 269 W/m 13,1 C 18,7 C 4,0 km/h (1 Bft) 0,00 %
10.09.2014 11:15 19,0 C 67 % 1012,2 hPa 0,0 l/m 0,0 km/h (0 Bft) SW 234 0 min 0,000 mm 3,0 UV-I 308 W/m 12,7 C 19,0 C 0,0 km/h (0 Bft) 0,00 %
10.09.2014 11:30 20,2 C 62 % 1012,2 hPa 0,0 l/m 2,9 km/h (1 Bft) O 81 15 min 0,000 mm 4,0 UV-I 475 W/m 12,7 C 20,2 C 0,0 km/h (0 Bft) 0,00 %
10.09.2014 11:45 19,8 C 66 % 1011,8 hPa 0,0 l/m 1,4 km/h (1 Bft) NO 46 15 min 0,000 mm 4,0 UV-I 520 W/m 13,3 C 19,8 C 0,0 km/h (0 Bft) 0,00 %
10.09.2014 12:00 19,7 C 61 % 1011,9 hPa 0,0 l/m 0,0 km/h (0 Bft) SO 125 0 min 0,000 mm 5,0 UV-I 264 W/m 12,0 C 19,7 C 4,0 km/h (1 Bft) 0,00 %
10.09.2014 12:15 19,4 C 64 % 1012,0 hPa 0,0 l/m 0,0 km/h (0 Bft) NO 46 0 min 0,000 mm 5,0 UV-I 232 W/m 12,4 C 19,4 C 0,0 km/h (0 Bft) 0,00 %
10.09.2014 12:30 20,1 C 61 % 1011,5 hPa 0,0 l/m 0,0 km/h (0 Bft) W-NW 286 0 min 0,000 mm 4,0 UV-I 279 W/m 12,3 C 20,1 C 4,0 km/h (1 Bft) 0,00 %
10.09.2014 12:45 20,0 C 62 % 1011,4 hPa 0,0 l/m 0,4 km/h (0 Bft) O-NO 73 0 min 0,000 mm 4,0 UV-I 277 W/m 12,5 C 20,0 C 0,0 km/h (0 Bft) 0,00 %
10.09.2014 13:00 20,1 C 62 % 1011,1 hPa 0,0 l/m 0,0 km/h (0 Bft) W-SW 256 15 min 0,000 mm 5,0 UV-I 515 W/m 12,6 C 20,1 C 4,0 km/h (1 Bft) 0,00 %
10.09.2014 13:15 20,9 C 63 % 1010,9 hPa 0,0 l/m 0,4 km/h (0 Bft) SW 223 15 min 0,000 mm 5,0 UV-I 537 W/m 13,6 C 20,9 C 0,0 km/h (0 Bft) 0,00 %
10.09.2014 13:30 20,2 C 60 % 1010,9 hPa 0,0 l/m 0,0 km/h (0 Bft) N 353 0 min 0,000 mm 5,0 UV-I 364 W/m 12,2 C 20,2 C 0,0 km/h (0 Bft) 0,00 %
10.09.2014 13:45 21,1 C 58 % 1010,7 hPa 0,0 l/m 1,8 km/h (1 Bft) O 99 15 min 0,000 mm 3,0 UV-I 587 W/m 12,5 C 21,1 C 0,0 km/h (0 Bft) 0,00 %
10.09.2014 14:00 21,3 C 55 % 1010,5 hPa 0,0 l/m 0,0 km/h (0 Bft) W-SW 255 15 min 0,000 mm 3,0 UV-I 652 W/m 11,9 C 21,3 C 0,0 km/h (0 Bft) 0,00 %
10.09.2014 14:15 20,8 C 59 % 1010,2 hPa 0,0 l/m 0,0 km/h (0 Bft) W-SW 256 15 min 0,000 mm 4,0 UV-I 595 W/m 12,5 C 20,8 C 0,0 km/h (0 Bft) 0,00 %
10.09.2014 14:30 20,8 C 58 % 1010,4 hPa 0,0 l/m 0,0 km/h (0 Bft) NW 308 15 min 0,000 mm 3,0 UV-I 683 W/m 12,2 C 20,8 C 4,0 km/h (1 Bft) 0,00 %
10.09.2014 14:45 20,8 C 59 % 1010,2 hPa 0,0 l/m 0,0 km/h (0 Bft) O-SO 123 0 min 0,000 mm 3,0 UV-I 306 W/m 12,5 C 20,8 C 0,0 km/h (0 Bft) 0,00 %
10.09.2014 15:00 20,8 C 58 % 1010,1 hPa 0,0 l/m 0,0 km/h (0 Bft) N-NW 340 15 min 0,000 mm 3,0 UV-I 388 W/m 12,2 C 20,8 C 4,0 km/h (1 Bft) 0,00 %
10.09.2014 15:15 20,6 C 57 % 1009,8 hPa 0,0 l/m 1,8 km/h (1 Bft) W-NW 287 0 min 0,000 mm 3,0 UV-I 301 W/m 11,8 C 20,6 C 4,0 km/h (1 Bft) 0,00 %
10.09.2014 15:30 20,8 C 56 % 1009,7 hPa 0,0 l/m 0,0 km/h (0 Bft) W-NW 301 15 min 0,000 mm 2,0 UV-I 372 W/m 11,7 C 20,8 C 4,0 km/h (1 Bft) 0,00 %
10.09.2014 15:45 20,2 C 57 % 1009,2 hPa 0,0 l/m 1,4 km/h (1 Bft) O-NO 67 15 min 0,000 mm 2,0 UV-I 317 W/m 11,4 C 20,2 C 0,0 km/h (0 Bft) 0,00 %
10.09.2014 16:00 20,4 C 55 % 1009,5 hPa 0,0 l/m 0,4 km/h (0 Bft) SW 231 0 min 0,000 mm 2,0 UV-I 270 W/m 11,1 C 20,4 C 0,0 km/h (0 Bft) 0,00 %
10.09.2014 16:15 20,4 C 56 % 1009,6 hPa 0,0 l/m 0,4 km/h (0 Bft) W-SW 256 0 min 0,000 mm 1,0 UV-I 224 W/m 11,3 C 20,4 C 0,0 km/h (0 Bft) 0,00 %
10.09.2014 16:30 20,6 C 54 % 1009,3 hPa 0,0 l/m 0,0 km/h (0 Bft) N-NW 346 0 min 0,000 mm 1,0 UV-I 253 W/m 11,0 C 20,6 C 0,0 km/h (0 Bft) 0,00 %
10.09.2014 16:45 20,8 C 51 % 1009,5 hPa 0,0 l/m 0,0 km/h (0 Bft) S 175 0 min 0,000 mm 1,0 UV-I 206 W/m 10,3 C 20,8 C 0,0 km/h (0 Bft) 0,00 %
10.09.2014 17:00 20,5 C 55 % 1009,7 hPa 0,0 l/m 0,0 km/h (0 Bft) S-SW 207 0 min 0,000 mm 1,0 UV-I 134 W/m 11,1 C 20,5 C 0,0 km/h (0 Bft) 0,00 %
10.09.2014 17:15 20,4 C 57 % 1009,5 hPa 0,0 l/m 0,0 km/h (0 Bft) W-SW 255 0 min 0,000 mm 1,0 UV-I 173 W/m 11,6 C 20,4 C 0,0 km/h (0 Bft) 0,00 %
10.09.2014 17:30 21,0 C 59 % 1009,4 hPa 0,0 l/m 0,0 km/h (0 Bft) O-SO 120 15 min 0,000 mm 0,0 UV-I 262 W/m 12,7 C 21,0 C 4,0 km/h (1 Bft) 0,00 %
10.09.2014 17:45 21,1 C 56 % 1009,5 hPa 0,0 l/m 0,0 km/h (0 Bft) SO 133 15 min 0,000 mm 0,0 UV-I 284 W/m 12,0 C 21,1 C 7,9 km/h (2 Bft) 0,00 %
10.09.2014 18:00 20,8 C 54 % 1009,6 hPa 0,0 l/m 0,0 km/h (0 Bft) O 86 15 min 0,000 mm 0,0 UV-I 131 W/m 11,1 C 20,8 C 0,0 km/h (0 Bft) 0,00 %
10.09.2014 18:15 20,0 C 61 % 1009,8 hPa 0,0 l/m 4,0 km/h (1 Bft) O-NO 66 15 min 0,000 mm 0,0 UV-I 106 W/m 12,2 C 20,0 C 4,0 km/h (1 Bft) 0,00 %
10.09.2014 18:30 18,5 C 63 % 1010,1 hPa 0,0 l/m 3,2 km/h (1 Bft) O-SO 108 15 min 0,000 mm 0,0 UV-I 101 W/m 11,3 C 18,5 C 0,0 km/h (0 Bft) 0,00 %
10.09.2014 18:45 18,0 C 66 % 1010,3 hPa 0,0 l/m 0,0 km/h (0 Bft) SO 134 15 min 0,000 mm 0,0 UV-I 63 W/m 11,6 C 18,0 C 4,0 km/h (1 Bft) 0,00 %
10.09.2014 19:00 17,4 C 67 % 1010,4 hPa 0,0 l/m 0,7 km/h (0 Bft) S-SO 152 0 min 0,000 mm 0,0 UV-I 34 W/m 11,2 C 17,4 C 0,0 km/h (0 Bft) 0,00 %
10.09.2014 19:15 16,8 C 69 % 1010,5 hPa 0,0 l/m 0,0 km/h (0 Bft) O-SO 120 0 min 0,000 mm 0,0 UV-I 4 W/m 11,1 C 16,8 C 7,9 km/h (2 Bft) 0,00 %
10.09.2014 19:30 16,4 C 70 % 1010,7 hPa 0,0 l/m 0,7 km/h (0 Bft) O-NO 65 0 min 0,000 mm 0,0 UV-I 0 W/m 10,9 C 16,4 C 4,0 km/h (1 Bft) 0,00 %
10.09.2014 19:45 16,2 C 71 % 1010,9 hPa 0,0 l/m 0,0 km/h (0 Bft) O 92 0 min 0,000 mm 0,0 UV-I 0 W/m 10,9 C 16,2 C 4,0 km/h (1 Bft) 0,00 %
10.09.2014 20:00 16,1 C 72 % 1010,9 hPa 0,0 l/m 4,0 km/h (1 Bft) O-SO 122 0 min 0,000 mm 0,0 UV-I 0 W/m 11,0 C 16,1 C 4,0 km/h (1 Bft) 0,00 %
10.09.2014 20:15 16,1 C 69 % 1011,2 hPa 0,0 l/m 1,4 km/h (1 Bft) O 94 0 min 0,000 mm 0,0 UV-I 0 W/m 10,4 C 16,1 C 0,0 km/h (0 Bft) 0,00 %
10.09.2014 20:30 16,2 C 70 % 1011,3 hPa 0,0 l/m 1,8 km/h (1 Bft) SO 134 0 min 0,000 mm 0,0 UV-I 0 W/m 10,7 C 16,2 C 0,0 km/h (0 Bft) 0,00 %
10.09.2014 20:45 16,0 C 72 % 1011,1 hPa 0,0 l/m 1,8 km/h (1 Bft) S 183 0 min 0,000 mm 0,0 UV-I 0 W/m 11,0 C 16,0 C 0,0 km/h (0 Bft) 0,00 %
10.09.2014 21:00 15,6 C 73 % 1011,3 hPa 0,0 l/m 0,0 km/h (0 Bft) S 175 0 min 0,000 mm 0,0 UV-I 0 W/m 10,8 C 15,6 C 0,0 km/h (0 Bft) 0,00 %
10.09.2014 21:15 15,3 C 75 % 1011,3 hPa 0,0 l/m 0,0 km/h (0 Bft) W-SW 255 0 min 0,000 mm 0,0 UV-I 0 W/m 10,9 C 15,3 C 0,0 km/h (0 Bft) 0,00 %
10.09.2014 21:30 15,2 C 76 % 1011,3 hPa 0,0 l/m 0,0 km/h (0 Bft) W-NW 294 0 min 0,000 mm 0,0 UV-I 0 W/m 11,0 C 15,2 C 0,0 km/h (0 Bft) 0,00 %
10.09.2014 21:45 14,9 C 78 % 1011,5 hPa 0,0 l/m 0,0 km/h (0 Bft) W-NW 294 0 min 0,000 mm 0,0 UV-I 0 W/m 11,1 C 14,9 C 0,0 km/h (0 Bft) 0,00 %
10.09.2014 22:00 14,5 C 81 % 1011,3 hPa 0,0 l/m 0,0 km/h (0 Bft) N-NW 342 0 min 0,000 mm 0,0 UV-I 0 W/m 11,3 C 14,5 C 0,0 km/h (0 Bft) 0,00 %
10.09.2014 22:15 14,4 C 81 % 1011,4 hPa 0,0 l/m 0,0 km/h (0 Bft) W-SW 252 0 min 0,000 mm 0,0 UV-I 0 W/m 11,2 C 14,4 C 0,0 km/h (0 Bft) 0,00 %
10.09.2014 22:30 14,1 C 83 % 1011,4 hPa 0,0 l/m 0,0 km/h (0 Bft) S 185 0 min 0,000 mm 0,0 UV-I 0 W/m 11,3 C 14,1 C 0,0 km/h (0 Bft) 0,00 %
10.09.2014 22:45 13,6 C 86 % 1011,3 hPa 0,0 l/m 0,0 km/h (0 Bft) S 185 0 min 0,000 mm 0,0 UV-I 0 W/m 11,3 C 13,6 C 0,0 km/h (0 Bft) 0,00 %
10.09.2014 23:00 13,6 C 85 % 1011,5 hPa 0,0 l/m 0,0 km/h (0 Bft) S-SW 199 0 min 0,000 mm 0,0 UV-I 0 W/m 11,1 C 13,6 C 0,0 km/h (0 Bft) 0,00 %
10.09.2014 23:15 13,5 C 85 % 1011,4 hPa 0,0 l/m 0,0 km/h (0 Bft) S-SW 201 0 min 0,000 mm 0,0 UV-I 0 W/m 11,0 C 13,5 C 0,0 km/h (0 Bft) 0,00 %
10.09.2014 23:30 13,5 C 86 % 1011,5 hPa 0,0 l/m 0,0 km/h (0 Bft) SW 216 0 min 0,000 mm 0,0 UV-I 0 W/m 11,2 C 13,5 C 0,0 km/h (0 Bft) 0,00 %
10.09.2014 23:45 13,5 C 87 % 1011,4 hPa 0,0 l/m 0,0 km/h (0 Bft) SO 142 0 min 0,000 mm 0,0 UV-I 0 W/m 11,4 C 13,5 C 0,0 km/h (0 Bft) 0,00 %
_ Min-Zeit 04:30 16:45 15:45 - 00:00 - - - - - - 16:45 04:30 00:00 00:00
Minimum _ 12,9 C 51 % 1009,2 hPa - 0,0 km/h (0 Bft) - - - - - - 10,3 C 12,9 C 0,0 km/h (0 Bft) 0,00 %
_ Max-Zeit 14:00 06:15 04:30 00:00 18:15 - - 09:00 00:00 10:30 14:30 13:15 14:00 17:45 00:00
Maximum _ 21,3 C 97 % 1013,9 hPa 0,0 l/m 4,0 km/h
O-NO (1 Bft)
- - 15 min 0,000 mm 5,0 UV-I 683 W/m 13,6 C 21,3 C 7,9 km/h
SO (2 Bft)
0,00 %
Durchschnitt _ 16,8 C 76 % 1011,9 hPa #0,0 l/m 0,3 km/h (0 Bft) O - #5:45 h #0,000 mm 2,9 UV-I 266 W/m 12,2 C 16,8 C 1,0 km/h (0 Bft) 0,00 %